Regional Weather Roundup
Issued by NWS

Home | Current Version | Previous Version | Text Only | Print | Product List | Glossary Off
Versions: 1 2 3 4 5 6 7 8 9 10 11 12 13 14 15 16 17 18 19 20 21 22 23 24 25 26 27 28 29 30 31 32 33 34 35 36 37 38 39 40 41 42 43 44 45 46 47 48 49 50

000
ASUS43 KOAX 202302
RWRNE

WEATHER ROUNDUP FOR NEBRASKA
NATIONAL WEATHER SERVICE OMAHA NE
600 PM CDT SAT SEP 20 2014

NOTES: SATELLITE DATA IS BEING USED TO AUGMENT CLOUD COVER ABOVE
       12000 FEET.
       "FAIR" INDICATES FEW OR NO CLOUDS BELOW 12,000 FEET WITH NO
       SIGNIFICANT WEATHER AND/OR OBSTRUCTIONS TO VISIBILITY.

  * THESE STATIONS DO NOT REPORT WEATHER SUCH AS RAIN...SNOW OR FOG.

NEZ001>004-019>022-054>056-210000-
NEBRASKA PANHANDLE

CITY           SKY/WX    TMP DP  RH WIND       PRES   REMARKS
SCOTTSBLUFF    SUNNY     83  44  25 N17G23    30.17R
ALLIANCE       SUNNY     79  42  26 N20       30.16R
CHADRON        SUNNY     80  42  25 NE14      30.15R
KIMBALL        SUNNY     79  43  27 N5G16     30.21R
SIDNEY         SUNNY     83  44  25 N12       30.19S
$$

NEZ057>060-069>072-079>082-210000-
SOUTHWEST NEBRASKA

CITY           SKY/WX    TMP DP  RH WIND       PRES   REMARKS
NORTH PLATTE   SUNNY     81  52  36 NW14      30.07R
IMPERIAL       SUNNY     85  46  25 N9        30.12R
LEXINGTON      SUNNY     84  50  30 N9        30.04S
MCCOOK         SUNNY     86  49  27 N9        30.07R
OGALLALA       SUNNY     85  46  25 N14       30.11S
$$

NEZ005>010-023>029-035>040-094-210000-
NORTH CENTRAL NEBRASKA

CITY           SKY/WX    TMP DP  RH WIND       PRES   REMARKS
VALENTINE      SUNNY     79  42  26 N21G33    30.09R
AINSWORTH      SUNNY     77  43  29 NW18G29   30.08R
BROKEN BOW     SUNNY     85  47  26 N15       30.04S
O`NEILL        SUNNY     80  47  31 NW18G26   30.01R
ORD            SUNNY     82  51  34 NW13      30.00R
THEDFORD       SUNNY     80  47  31 N21G26    30.10R
$$

NEZ041-046>049-061>064-073>077-083>087-210000-
SOUTH CENTRAL NEBRASKA

CITY           SKY/WX    TMP DP  RH WIND       PRES   REMARKS
GRAND ISLAND   SUNNY     85  51  31 NW10      30.00S
AURORA         SUNNY     83  49  29 NW6       29.99S
HASTINGS       SUNNY     83  50  31 N10       30.01R
HEBRON         SUNNY     87  48  26 N6        29.96S
HOLDREGE       SUNNY     82  49  31 CALM      30.04S
KEARNEY *      SUNNY     84  52  32 NW12      30.03S
YORK           SUNNY     79  59  50 NW7       29.98S
$$

NEZ011>018-030>034-042>045-210000-
NORTHEAST NEBRASKA

CITY           SKY/WX    TMP DP  RH WIND       PRES   REMARKS
NORFOLK        SUNNY     83  52  34 NW15      29.95S
ALBION         SUNNY     83  47  28 NW12G20   29.99S
BLAIR          SUNNY     82  56  40 W6        29.93S
COLUMBUS *     SUNNY     82  54  36 NW10      29.97S
FREMONT        SUNNY     83  53  34 NW8       29.94R
TEKAMAH        SUNNY     84  55  36 W10       29.91S
WAYNE          SUNNY     82  53  36 W17G23    29.93S
$$

NEZ050>053-065>068-078-088>093-210000-
SOUTHEAST NEBRASKA

CITY           SKY/WX    TMP DP  RH WIND       PRES   REMARKS
LINCOLN        SUNNY     85  58  39 NW7       29.95S
OMAHA EPPLEY   MOSUNNY   82  58  43 NW9       29.92R
BEATRICE       SUNNY     86  58  38 NW10      29.94S
FALLS CITY     SUNNY     83  69  62 W8        29.92R
NEBRASKA CITY    N/A     82  48  30 NW10      29.93S
PLATTSMOUTH    SUNNY     82  54  37 W7        29.93R
$$

NEZ044-045-051>053-067-210000-
OMAHA AREA

CITY           SKY/WX    TMP DP  RH WIND       PRES   REMARKS
OMAHA EPPLEY   MOSUNNY   82  58  43 NW9       29.92R
BLAIR          SUNNY     82  56  40 W6        29.93S
FREMONT        SUNNY     83  53  34 NW8       29.94R
MILLARD        SUNNY     83  59  45 NW9       29.92S
OFFUTT AFB     SUNNY     83  61  47 NW7       29.92R
PLATTSMOUTH    SUNNY     82  54  37 W7        29.93R
WAHOO          FAIR      83  54  36 NW7       29.94S
$$



USA.gov is the U.S. government's official web portal to all federal, state and local government web resources and services.